Torna al catalogo

BREEZE-M DEB

TANK

AttivoHEO
NORAD 29271·DEBRIS·🇷🇺 Russia

Lanciato Aug 4, 2006 da Baikonur Cosmodrome

Loading…

Prossimi Passaggi (prossime 24 ore)

TLE

AggiornatoSource: Space-Track

Epoca: Sep 14, 2026, 03:49 UTC

1 29271U 06032C   26257.15939346  .00004177  00000-0  79400-3 0  9996
2 29271  49.5196 227.0498 5164698 330.8107   8.1630  5.34374955370733

Traccia BREEZE-M DEB in tempo reale con AllMySat

Download on the App Store